Home   Weather   Meiningen   Past weeks

Flag for Germany Past Weather in Meiningen, Thuringia, Germany — Yesterday and Last 2 Weeks

Now
50 °F

Clear.


Feels Like: 46 °F
Forecast: 46 / 65 °F
Wind: 10 mph from Southwest

Location: Erfurt-Bindersleben

Current Time: Sep 25, 2016 at 7:32:38 AM

Latest Report: Sep 25, 2016 at 6:50 AM


Visibility: 10 mi

Pressure: 30.15 "Hg

Humidity: 82%

Dew Point: 45 °F

Location of MeiningenLocation

Past Weather in Meiningen — Graph

°F

Meiningen Temperature Yesterday

Maximum temperature yesterday: 72 °F (at 2:50 PM)
Minimum temperature yesterday: 45 °F (at 6:50 AM)
Average temperature yesterday: 58 °F

High & Low Weather Summary for the Past Weeks

 TemperatureHumidityPressure
High90 °F (Sep 12, 4:20 PM)100% (Sep 17, 2:20 AM)30.33 "Hg (Sep 17, 2:20 AM)
Low43 °F (Sep 21, 5:50 AM)29% (Sep 12, 3:50 PM)29.89 "Hg (Sep 15, 3:20 PM)
Average63 °F72%30.06 "Hg
* Reported Sep 10 6:20 AM — Sep 25 6:20 AM, Meiningen, Weather by CustomWeather, © 2016

Note: Actual official high and low records may vary slightly from our data, if they occured in-between our weather recording intervals... More about our weather records

Advertising

Meiningen Weather History for the Previous 24 Hours

Scroll right to see more
 ConditionsComfort  
Time TempWeatherWind HumidityBarometerVisibility
6:20 AM
Sun, Sep 25
52 °FClear.10 mph77%30.18 "Hg10 mi
5:50 AM52 °FClear.12 mph77%30.18 "Hg10 mi
5:20 AM52 °FClear.10 mph82%30.18 "Hg10 mi
4:50 AM52 °FClear.12 mph82%30.18 "Hg10 mi
4:20 AM52 °FClear.10 mph82%30.18 "Hg10 mi
3:50 AM54 °FClear.10 mph77%30.18 "Hg10 mi
3:20 AM54 °FClear.9 mph82%30.18 "Hg10 mi
2:50 AM54 °FClear.9 mph82%30.21 "Hg10 mi
2:20 AM54 °FClear.9 mph82%30.21 "Hg10 mi
1:50 AM54 °FClear.9 mph82%30.21 "Hg10 mi
1:20 AM54 °FClear.9 mph82%30.21 "Hg10 mi
12:50 AM55 °FClear.9 mph82%30.21 "Hg10 mi
12:20 AM57 °FClear.10 mph77%30.21 "Hg10 mi
11:50 PM
Sat, Sep 24
57 °FClear.9 mph77%30.21 "Hg10 mi
11:20 PM57 °FClear.7 mph77%30.21 "Hg10 mi
10:50 PM57 °FClear.6 mph77%30.21 "Hg10 mi
10:20 PM59 °FClear.7 mph72%30.21 "Hg10 mi
9:50 PM59 °FClear.6 mph77%30.24 "Hg10 mi
9:20 PM61 °FPassing clouds.6 mph68%30.24 "HgN/A
8:50 PM61 °FClear.5 mph68%30.24 "Hg10 mi
8:20 PM61 °FClear.5 mph68%30.24 "Hg10 mi
7:50 PM63 °FClear.5 mph64%30.24 "Hg10 mi
7:20 PM64 °FClear.5 mph60%30.24 "Hg10 mi
6:50 PM66 °FSunny.3 mph56%30.24 "Hg10 mi
6:20 PM68 °FSunny.3 mph53%30.24 "Hg10 mi
5:50 PM68 °FSunny.2 mph53%30.24 "Hg10 mi
5:20 PM70 °FPassing clouds.3 mph50%30.24 "HgN/A
4:50 PM70 °FPassing clouds.5 mph46%30.24 "HgN/A
4:20 PM70 °FScattered clouds.6 mph46%30.27 "HgN/A
3:50 PM70 °FScattered clouds.6 mph50%30.27 "HgN/A
3:20 PM70 °FScattered clouds.5 mph53%30.27 "HgN/A
2:50 PM72 °FScattered clouds.3 mph50%30.27 "HgN/A
2:20 PM70 °FScattered clouds.3 mph50%30.27 "HgN/A
1:50 PM70 °FScattered clouds.2 mph53%30.30 "HgN/A
1:20 PM68 °FScattered clouds.2 mph56%30.30 "HgN/A
12:50 PM68 °FScattered clouds.3 mph56%30.30 "HgN/A
12:20 PM68 °FScattered clouds.5 mph60%30.30 "HgN/A
11:50 AM64 °FScattered clouds.3 mph64%30.30 "HgN/A
11:20 AM63 °FSunny.3 mph68%30.33 "Hg10 mi
10:50 AM61 °FSunny.1 mph72%30.33 "Hg10 mi
10:20 AM57 °FPassing clouds.5 mph77%30.33 "HgN/A
9:50 AM55 °FSunny.7 mph88%30.33 "Hg10 mi
9:20 AM54 °FSunny.7 mph88%30.33 "Hg10 mi
8:50 AM52 °FSunny.7 mph88%30.33 "Hg10 mi
8:20 AM48 °FSunny.8 mph94%30.33 "Hg10 mi
7:50 AM46 °FSunny.8 mph93%30.30 "Hg10 mi
7:20 AM45 °FSunny.9 mph100%30.30 "Hg10 mi
Weather by CustomWeather, © 2016

See weather overviewHow to use our weather pages